Home   Weather   Gothenburg   Past weeks

Flag for Sweden Past Weather in Gothenburg, Sweden — Yesterday and Last 2 Weeks

Now
39 °F

Low clouds.


Feels Like: 31 °F
Forecast: 39 / 42 °F
Wind: 14 mph from West

Location: Gothenburg / Landvetter

Current Time: Feb 19, 2017 at 5:58:27 pm

Latest Report: Feb 19, 2017 at 5:20 pm


Visibility: N/A

Pressure: 29.71 "Hg

Humidity: 100%

Dew Point: 39 °F

Location of GothenburgLocation

Past Weather in Gothenburg — Graph

°F

Gothenburg Temperature Yesterday

Maximum temperature yesterday: 36 °F (at 7:50 pm)
Minimum temperature yesterday: 27 °F (at 5:20 am)
Average temperature yesterday: 31 °F

High & Low Weather Summary for the Past Weeks

 TemperatureHumidityPressure
High43 °F (Feb 15, 12:20 pm)100% (Feb 4, 4:20 pm)30.74 "Hg (Feb 4, 4:20 pm)
Low18 °F (Feb 13, 3:20 am)29% (Feb 15, 12:50 pm)29.68 "Hg (Feb 4, 4:20 pm)
Average29 °F84%30.36 "Hg
* Reported Feb 4 4:20 pm — Feb 19 4:20 pm, Gothenburg, Weather by CustomWeather, © 2017

Note: Actual official high and low records may vary slightly from our data, if they occured in-between our weather recording intervals... More about our weather records

Advertising

Gothenburg Weather History for the Previous 24 Hours

Scroll right to see more
 ConditionsComfort  
Time TempWeatherWind HumidityBarometerVisibility
4:20 pm
Sun, Feb 19
39 °FLow clouds.12 mph100%29.71 "HgN/A
3:50 pm39 °FFog.13 mph100%29.71 "Hg4 mi
3:20 pm39 °FFog.13 mph100%29.71 "Hg4 mi
2:50 pm39 °FFog.12 mph100%29.71 "Hg4 mi
2:20 pm39 °FLow clouds.14 mph100%29.71 "Hg1 mi
1:50 pm39 °FFog.14 mph100%29.71 "Hg1 mi
1:20 pm41 °FFog.14 mph93%29.71 "Hg0 mi
12:50 pm41 °FFog.13 mph93%29.71 "Hg0 mi
12:20 pm39 °FFog.12 mph100%29.74 "Hg0 mi
11:50 am39 °FFog.13 mph100%29.74 "Hg0 mi
11:20 am39 °FFog.13 mph100%29.74 "Hg0 mi
10:50 am39 °FFog.13 mph100%29.74 "Hg0 mi
10:20 am39 °FFog.15 mph100%29.74 "Hg0 mi
9:50 am39 °FFog.14 mph93%29.74 "Hg0 mi
9:20 am37 °FFog.13 mph100%29.74 "Hg0 mi
8:50 am37 °FFog.13 mph100%29.74 "Hg0 mi
8:20 am37 °FFog.14 mph100%29.74 "Hg0 mi
7:50 am37 °FFog.15 mph100%29.74 "Hg0 mi
7:20 am37 °FLight rain. Dense fog.15 mph100%29.74 "Hg0 mi
6:50 am37 °FFog.14 mph100%29.74 "Hg0 mi
6:20 am37 °FFog.13 mph100%29.74 "Hg0 mi
5:50 am37 °FFog.13 mph100%29.77 "Hg0 mi
5:20 am37 °FFog.13 mph100%29.77 "Hg0 mi
4:50 am37 °FFog.15 mph93%29.77 "Hg0 mi
4:20 am37 °FDrizzle. Dense fog.15 mph93%29.77 "Hg1 mi
3:50 am37 °FLight rain. Fog.17 mph93%29.80 "Hg1 mi
2:50 am37 °FLight rain. Fog.18 mph93%29.80 "Hg1 mi
2:20 am36 °FFog.18 mph100%29.83 "Hg0 mi
1:50 am37 °FFog.20 mph93%29.83 "Hg1 mi
1:20 am37 °FFog.20 mph93%29.83 "Hg0 mi
12:50 am37 °FFog.17 mph93%29.86 "Hg1 mi
12:20 am37 °FFog.18 mph93%29.86 "Hg1 mi
11:50 pm
Sat, Feb 18
36 °FLight rain. Low clouds.17 mph100%29.86 "Hg2 mi
11:20 pm36 °FLight rain. Low clouds.17 mph100%29.89 "Hg2 mi
10:50 pm36 °FLight rain. Dense fog.16 mph100%29.89 "Hg1 mi
10:20 pm36 °FDense fog.16 mph100%29.92 "Hg1 mi
9:50 pm36 °FLight rain. Dense fog.17 mph100%29.92 "Hg1 mi
9:20 pm36 °FLight rain. Dense fog.16 mph100%29.92 "Hg1 mi
8:50 pm36 °FFog.17 mph100%29.95 "Hg0 mi
8:20 pm36 °FDrizzle. Dense fog.17 mph93%29.95 "Hg1 mi
7:50 pm36 °FDrizzle. Low clouds.14 mph93%29.95 "Hg2 mi
7:20 pm34 °FDrizzle. Dense fog.15 mph100%29.98 "Hg1 mi
6:50 pm34 °FFog.13 mph100%29.98 "Hg0 mi
6:20 pm34 °FFog.14 mph100%29.98 "Hg0 mi
5:50 pm34 °FFog.15 mph100%30.01 "Hg0 mi
5:20 pm34 °FFog.13 mph93%30.01 "Hg0 mi
Weather by CustomWeather, © 2017

See weather overviewHow to use our weather pages